Regional Weather Roundup
Issued by NWS

Home | Current Version | Previous Version | Text Only | Print | Product List | Glossary On
Versions: 1 2 3 4 5 6 7 8 9 10 11 12 13 14 15 16 17 18 19 20 21 22 23 24 25 26 27 28 29 30 31 32 33 34 35 36 37 38 39 40 41 42 43 44 45 46 47 48 49 50
000
ASUS43 KMPX 271110
RWRMN
WEATHER ROUNDUP FOR MINNESOTA
NATIONAL WEATHER SERVICE TWIN CITIES/CHANHASSEN MN
500 AM CST THU FEB 27 2020


NOTE: "FAIR" INDICATES FEW OR NO CLOUDS BELOW 12,000 FEET WITH NO
SIGNIFICANT WEATHER AND/OR OBSTRUCTIONS TO VISIBILITY. N/A MEANS
CURRENT SKY AND/OR WEATHER CONDITIONS ARE NOT AVAILABLE.

MNZ060>063-068>070-271200-
   Twin Cities Metro

CITY           SKY/WX    TMP DP  RH WIND       PRES   REMARKS
TWIN CITIES    MOCLDY    17  11  77 W5        30.12S WCI  10
ST PAUL        MOCLDY    19  13  77 NW6       30.13S WCI  11
CRYSTAL        FAIR      15  10  80 NW3       30.11S
BLAINE         MOCLDY    18  14  86 CALM      30.10F
LAKEVILLE        N/A     14  12  92 W6        30.11S WCI   5
EDEN PRAIRIE   FAIR      13   8  81 CALM      30.11S
SOUTH ST PAUL  FAIR      18  14  84 W3        30.12S
LAKE ELMO      FAIR     N/A N/A N/A N3        30.11S
$$
MNZ001>005-007-008-013>017-022>024-027-028-271200-
   Northwest Minnesota

CITY           SKY/WX    TMP DP  RH WIND       PRES   REMARKS
BEMIDJI        FAIR       0  -4  84 CALM      30.12S
HALLOCK        CLEAR     -6  -9  84 CALM      30.19S
ROSEAU           N/A      1  -2  85 CALM      30.18S
WARROAD        MOCLDY     3   0  85 CALM      30.17S
THIEF RVR FALL CLEAR     -4  -7  87 N3        30.17S
CROOKSTON      CLEAR     -4  -8  84 CALM      30.20S
FOSSTON        PTCLDY   -11 -15  84 CALM      30.15S
DETROIT LAKES  FAIR       1  -4  78 CALM      30.13S
MOORHEAD       CLEAR      3  -4  72 CALM      30.18R
PARK RAPIDS    CLOUDY    -1  -5  82 CALM      30.10S
MAHNOMEN       FAIR      -7 -10  84 CALM      30.14S
$$
MNZ006-009>011-018-025>026-271200-
   North Central Minnesota

CITY           SKY/WX    TMP DP  RH WIND       PRES   REMARKS
BAUDETTE       CLOUDY     1  -3  83 CALM      30.15S
FLAG ISLAND      N/A      1  -2  85 CALM      30.17S
INTL FALLS     FAIR      -5  -9  83 CALM      30.14R
BIG FORK       MOCLDY     0  -4  85 CALM      30.17R
LONGVILLE      CLOUDY     9   0  66 CALM      30.11F
GRAND RAPIDS   CLOUDY     9   0  67 N7        30.13S WCI  -2
CRANE LAKE     FAIR      -9 -13  84 CALM      30.17R
ORR              N/A     -2  -6  84 CALM      30.09S
COOK           FAIR       0  -4  85 CALM      30.11R
WALKER         CLOUDY     4   0  84 CALM      30.12R
$$
MNZ012-019>021-037-271200-
   Northeast Minnesota

CITY           SKY/WX    TMP DP  RH WIND       PRES   REMARKS
DULUTH         FAIR       5  -5  63 N5        30.08S WCI  -4
ELY            FAIR       1  -2  85 CALM      30.08S
HIBBING        FAIR       2  -5  72 CALM      30.10S
EVELETH        FAIR      -1  -4  85 CALM      30.10S
DULUTH HARBOR  CLOUDY    14   1  57 N14       30.15S WCI  -1
TWO HARBORS    FAIR       5  -8  56 CALM      30.10R
SILVER BAY     FAIR       1  -4  78 CALM      30.10S
GRAND MARAIS     N/A      5  -3  69 N14G28    30.10F WCI -12
G MARAIS ARPRT FAIR      -4  -9  77 NW5       30.00S WCI -15
$$
MNZ029>031-032-039>041-046>048-054>057-064-271200-
   West Central Minnesota

CITY           SKY/WX    TMP DP  RH WIND       PRES   REMARKS
FERGUS FALLS   CLOUDY     3   0  85 NE5       30.16S WCI  -6
WHEATON          N/A      7   3  85 CALM      30.17S
ALEXANDRIA     FAIR       5   2  87 CALM      30.10S
ELBOW LAKE     FAIR      -1  -3  90 CALM      30.14R
WADENA         FAIR       1   0  92 N5        30.11S WCI  -8
GLENWOOD       FAIR       5   3  92 N5        30.11S WCI  -4
APPLETON       MOCLDY     7   1  78 CALM      30.15S
BENSON         PTCLDY     0  -2  92 N3        30.15R
ORTONVILLE     PTCLDY     9   7  92 CALM      30.14S
MADISON        MOCLDY    14  10  85 CALM      30.15S
WILLMAR        FAIR       9   3  78 CALM      30.15S
$$
MNZ033>034-036-042>043-049>051-058-059-271200-
   Central Minnesota

CITY           SKY/WX    TMP DP  RH WIND       PRES   REMARKS
ST CLOUD       FAIR       9   5  84 N3        30.11S
SAUK CENTRE      N/A      5   3  90 CALM      30.11S
PAYNESVILLE    FAIR       4   3  95 W3        30.12S
AITKIN         CLOUDY    10   1  67 N6        30.10S WCI   1
PINE RIVER     CLOUDY     9   1  72 CALM      30.14S
BRAINERD       CLOUDY    14   3  61 N7        30.11S WCI   4
STAPLES        CLOUDY     5   1  85 CALM      30.11S
LONG PRAIRIE   MOCLDY     5   3  92 N3        30.11F
LITTLE FALLS   FAIR       7   3  85 CALM      30.13S
CAMP RIPLEY    FAIR       6   1  79 N3        30.13S
LITCHFIELD       N/A      9   9 100 W3        30.12S
BUFFALO        FAIR      12   8  85 MISG      30.13S
MAPLE LAKE       N/A     11   9  93 CALM      30.12S
HUTCHINSON     CLEAR      9   7  90 W5        30.13S WCI   1
$$
MNZ037-044-045-052-053-271200-
   East Central Minnesota

CITY           SKY/WX    TMP DP  RH WIND       PRES   REMARKS
PRINCETON      CLOUDY    16   9  73 N5        30.11S WCI   9
MORA           CLOUDY    14   5  67 CALM      30.14S
CAMBRIDGE      CLOUDY    18   5  57 N3        30.12S
RUSH CITY      CLOUDY    15   4  61 N5        30.12S WCI   8
MOOSE LAKE     CLOUDY    12   3  67 N5        30.11S WCI   4
HINCKLEY       CLOUDY    16   5  62 N5        30.12S WCI   9
CLOQUET        FAIR       7   0  72 NW3       30.10S
MCGREGOR       CLOUDY    12   3  67 N5        30.12S WCI   4
$$
MNZ071>073-080-081-089-090-097-098-271200-
   Southwest Minnesota

CITY           SKY/WX    TMP DP  RH WIND       PRES   REMARKS
MONTEVIDEO     CLOUDY    10   5  79 N3        30.15R
GRANITE FALLS  CLOUDY    13  10  86 CALM      30.15S
CANBY          CLOUDY    17  13  86 CALM      30.14S
MARSHALL       CLOUDY    15  11  83 N5        30.13S WCI   8
REDWOOD FALLS  CLOUDY    13   8  81 NW3       30.13S
OLIVIA         CLOUDY    10   9  92 NW6       30.13R WCI   1
PIPESTONE      PTCLDY    16  14  93 E3        30.07F
WINDOM         CLEAR     16  12  86 N9        30.09F WCI   4
WORTHINGTON    CLOUDY    16  14  92 N6        30.09S WCI   7
SLAYTON        CLOUDY    16  14  91 N5        30.10R WCI   9
$$
MNZ065>067-074>077-082>085-091>093-271200-
   South Central Minnesota

CITY           SKY/WX    TMP DP  RH WIND       PRES   REMARKS
MANKATO        CLOUDY    15  12  88 NW7       30.12F WCI   5
NEW ULM        PTCLDY    12   9  85 NW7       30.12F WCI   2
ST JAMES         N/A     19  16  86 NW10      30.11F WCI   8
FARIBAULT        N/A     14  10  85 W9        30.10F WCI   2
OWATONNA       FAIR      10   9  92 CALM      30.10S
WASECA         CLOUDY    14  10  85 NW6       30.11F WCI   5
ALBERT LEA     CLOUDY    16  12  86 CALM      30.10R
$$
MNZ078>079-086>088-094>096-271200-
   Southeast Minnesota

CITY           SKY/WX    TMP DP  RH WIND       PRES   REMARKS
ROCHESTER      FAIR      10   7  87 NW9       30.07S WCI  -3
RED WING       MOCLDY    18  14  86 W3        30.10F
STANTON        CLOUDY    14  10  86 W3        30.10S
DODGE CENTER   CLOUDY    12   9  85 W7        30.08S WCI   2
WINONA         CLOUDY    21  18  86 W3        30.11S
AUSTIN         FAIR      16  12  86 NW5       30.09S WCI   9
PRESTON        FAIR      10   8  90 NW8       30.07S WCI  -1
$$
ABBREVIATIONS USED IN REMARKS
   TC - TEMPERATURES IN CELSIUS
  WCI - WIND CHILL INDEX
   HX - HEAT INDEX
  VSB - VISIBILITY
$$




USA.gov is the U.S. government's official web portal to all federal, state and local government web resources and services.